User: anonymous   Login
Location: Unspecified
(0.0000°N, 0.0000°E)
Time: 16:44:24
(UTC+00:00)
Language:

COSMOS 2438 - Orbit

View from above orbital plane
View from above orbital plane
View from above satellite
View from above satellite

Ground track
Ground track

The orbit data is extracted from the following two-line orbital elements,

1 32955U 08025C   19016.70928711  .00000019  00000-0  65030-4 0  9999
2 32955  82.4994 238.2858 0021745  97.2439 263.1107 12.43305468483417
Epoch (UTC): 16 January 2019 17:01:22
Eccentricity: 0.0021745
inclination: 82.4994°
perigee height: 1475 km
apogee height: 1510 km
right ascension of ascending node: 238.2858°
argument of perigee: 97.2439°
revolutions per day: 12.43305468
mean anomaly at epoch: 263.1107°
orbit number at epoch: 48341

The dashed part of the orbit path shows where the satellite is in the earth's shadow,  

DLR